Simultaneous Nadir Overpasses (SNOs) Predictions

Prediction of SNOs between GOES-15 and NOAA-20 Satellite Orbit:

Table of predicted SNOs for the next 14.0 days since TLE Epoch: 11/2/2024
Index Date Time (GOES-15) GOES-15 Lat,Lon NOAA-20 Lat,Lon Distance(km) Time Diff (sec)
1 11/02/2024 21:04:06 0.14, 61.41 -0.52, 64.46 347.27 80
2 11/04/2024 09:26:02 -0.11, 61.45 -0.64, 59.15 262.48 80
3 11/05/2024 09:09:56 -0.13, 61.47 0.36, 63.69 252.99 80
4 11/06/2024 21:31:44 0.10, 61.46 0.79, 58.41 347.68 80
5 11/07/2024 21:10:18 0.11, 61.49 -0.22, 62.95 166.55 80
6 11/09/2024 09:32:13 -0.08, 61.56 -0.97, 57.65 445.90 80
7 11/10/2024 09:16:08 -0.09, 61.57 0.04, 62.18 69.20 80
8 11/12/2024 21:19:09 0.08, 61.58 0.10, 61.45 15.64 80
9 11/13/2024 20:57:42 0.10, 61.61 -0.88, 65.99 498.49 80
10 11/15/2024 09:19:38 -0.07, 61.70 -0.28, 60.68 115.23 80
